Flag for Belgium Weather past 2 weeks in Charleroi, Belgium

Now
73 °F

Passing clouds.


Feels Like: 77 °F
Forecast: 53 / 78 °F
Wind: 6 mph from West

Location: Charleroi / Gosselies

Current Time: Jul 31, 2014 at 8:17:46 PM

Latest Report: Jul 31, 2014 at 7:50 PM


Visibility: N/A

Pressure: 29.95 "Hg

Humidity: 50%

Dew point: 54 °F

Location of CharleroiLocation

Historic Weather in Charleroi — Graph

°F

Charleroi temperature yesterday

Maximum temperature yesterday: 72 °F (at 3:20 PM)
Minimum temperature yesterday: 59 °F (at 5:50 AM)
Average temperature yesterday: 65 °F

Past Weeks' High & Low Weather Summary

 TemperatureHumidityPressure
High91 °F (Jul 18, 4:20 PM)100% (Jul 21, 1:50 AM)30.18 "Hg (Jul 21, 1:50 AM)
Low52 °F (Jul 31, 6:20 AM)34% (Jul 18, 4:20 PM)29.80 "Hg (Jul 19, 7:20 PM)
Average69 °F73%29.98 "Hg
* Reported Jul 16 6:20 PM — Jul 31 6:50 PM, Charleroi, Weather by CustomWeather, © 2014

Note: Actual official high and low records may vary slightly from our data, if they occured in-between our weather recording intervals... More about our weather records

Advertising

Charleroi weather history for previous 24 hours

 ConditionsComfort  
Time TempWeatherWind HumidityBarometerVisibility
6:50 PM
Jul 31
75 °FPassing clouds.8 mph47%29.95 "HgN/A
6:20 PM75 °FPassing clouds.7 mph47%29.95 "HgN/A
5:50 PM77 °FPassing clouds.7 mph44%29.95 "HgN/A
5:20 PM77 °FPassing clouds.7 mph44%29.95 "HgN/A
4:50 PM77 °FPassing clouds.6 mph42%29.95 "HgN/A
4:20 PM77 °FPassing clouds.7 mph44%29.98 "HgN/A
3:50 PM77 °FPassing clouds.8 mph44%29.98 "HgN/A
3:20 PM75 °FPassing clouds.3 mph44%29.98 "HgN/A
2:50 PM75 °FPassing clouds.7 mph41%29.98 "HgN/A
2:20 PM75 °FPassing clouds.7 mph39%29.98 "HgN/A
1:50 PM73 °FSunny.6 mph41%30.01 "Hg10 mi
1:20 PM73 °FPassing clouds.6 mph47%30.01 "HgN/A
12:50 PM73 °FSunny.3 mph50%30.01 "Hg10 mi
12:20 PM72 °FSunny.3 mph53%30.01 "Hg10 mi
11:50 AM70 °FSunny.3 mph57%30.04 "Hg10 mi
11:20 AM68 °FSunny.3 mph56%30.04 "Hg10 mi
10:50 AM68 °FSunny.2 mph56%30.04 "Hg10 mi
10:20 AM66 °FSunny.2 mph64%30.04 "Hg10 mi
9:50 AM64 °FPassing clouds.3 mph68%30.04 "HgN/A
9:20 AM63 °FPassing clouds.5 mph77%30.04 "HgN/A
8:50 AM61 °FPassing clouds.3 mph77%30.04 "HgN/A
8:20 AM59 °FPassing clouds.3 mph88%30.04 "HgN/A
7:50 AM57 °FClear.3 mph94%30.04 "Hg6 mi
7:20 AM55 °FClear.3 mph88%30.04 "Hg6 mi
6:50 AM54 °FClear.3 mph94%30.04 "Hg10 mi
6:20 AM52 °FClear.3 mph100%30.04 "Hg10 mi
5:50 AM54 °FClear.3 mph94%30.04 "Hg10 mi
5:20 AM54 °FClear.2 mph94%30.04 "Hg10 mi
4:50 AM54 °FClear.1 mph94%30.04 "Hg10 mi
4:20 AM54 °FClear.2 mph94%30.04 "Hg10 mi
3:50 AM54 °FClear.1 mph94%30.04 "Hg10 mi
3:20 AM54 °FClear.1 mph94%30.04 "Hg10 mi
2:50 AM54 °FClear.1 mph94%30.04 "Hg10 mi
2:20 AM54 °FClear.3 mph94%30.04 "Hg10 mi
1:50 AM55 °FClear.1 mph88%30.04 "Hg10 mi
1:20 AM55 °FClear.1 mph88%30.04 "Hg10 mi
12:50 AM55 °FClear.2 mph94%30.04 "Hg10 mi
12:20 AM59 °FClear.2 mph77%30.04 "Hg10 mi
11:50 PM
Jul 30
59 °FPassing clouds.3 mph77%30.04 "HgN/A
11:20 PM61 °FPassing clouds.3 mph72%30.04 "HgN/A
10:50 PM61 °FClear.3 mph77%30.04 "Hg10 mi
10:20 PM63 °FSunny.5 mph73%30.04 "Hg10 mi
9:50 PM63 °FPassing clouds.5 mph77%30.01 "HgN/A
9:20 PM64 °FPassing clouds.7 mph73%30.01 "HgN/A
8:50 PM66 °FPassing clouds.5 mph64%30.01 "HgN/A
8:20 PM68 °FPassing clouds.7 mph60%30.01 "HgN/A
Weather by CustomWeather, © 2014

See weather overviewHow to use our weather pages